Regional Weather Roundup
Issued by NWS

Home | Current Version | Previous Version | Text Only | Print | Product List | Glossary Off
Versions: 1 2 3 4 5 6 7 8 9 10 11 12 13 14 15 16 17 18 19 20 21 22 23 24 25 26 27 28 29 30 31 32 33 34 35 36 37 38 39 40 41 42 43 44 45 46 47 48 49 50

000
ASUS43 KMPX 261710
RWRMN
WEATHER ROUNDUP FOR MINNESOTA
NATIONAL WEATHER SERVICE TWIN CITIES/CHANHASSEN MN
1200 PM CDT MON SEP 26 2016


NOTE: "FAIR" INDICATES FEW OR NO CLOUDS BELOW 12,000 FEET WITH NO
SIGNIFICANT WEATHER AND/OR OBSTRUCTIONS TO VISIBILITY. N/A MEANS
CURRENT SKY AND/OR WEATHER CONDITIONS ARE NOT AVAILABLE.

MNZ060>063-068>070-261800-
   Twin Cities Metro

CITY           SKY/WX    TMP DP  RH WIND       PRES   REMARKS
TWIN CITIES    MOSUNNY   60  39  45 NW23G37   29.92S
ST PAUL        PTSUNNY   59  40  49 W22G38    29.92S
CRYSTAL        MOSUNNY   61  37  41 W24G35    29.91S
BLAINE         MOSUNNY   59  43  55 W23G30    29.91S
LAKEVILLE      SUNNY     61  39  44 W20G26    29.93F
EDEN PRAIRIE   MOSUNNY   61  39  44 W22G33    29.93S
LAKEVILLE      SUNNY     61  39  44 W20G26    29.93F
SOUTH ST PAUL  MOSUNNY   61  38  42 NW20G32   29.92S
LAKE ELMO      PTSUNNY   59  39  47 NW30      29.92R
$$
MNZ001>005-007-008-013>017-022>024-027-028-261800-
   Northwest Minnesota

CITY           SKY/WX    TMP DP  RH WIND       PRES   REMARKS
BEMIDJI        PTSUNNY   55  40  56 NW22G30   29.84S
HALLOCK        MOSUNNY   57  43  58 NW23G32   29.89S
ROSEAU         PTSUNNY   55  46  71 NW20G28   29.80S
WARROAD        CLOUDY    54  46  76 NW18G26   29.78R
THIEF RVR FALL PTSUNNY   55  41  59 NW20G31   29.90R
CROOKSTON      SUNNY     57  41  54 NW25G36   29.92S
FOSSTON        SUNNY     55  37  50 W22G36    29.89S
DETROIT LAKES  SUNNY     55  37  50 NW24G33   29.95R
MOORHEAD       SUNNY     61  34  36 NW24G32   29.97F
PARK RAPIDS    SUNNY     58  38  47 NW26G36   29.88S
MAHNOMEN       FAIR      56  39  52 NW25G37   29.90F
$$
MNZ006-009>011-018-025>026-261800-
   North Central Minnesota

CITY           SKY/WX    TMP DP  RH WIND       PRES   REMARKS
BAUDETTE       CLOUDY    51  43  74 W21G33    29.74R
FLAG ISLAND    CLOUDY    52  46  82 NW28G37   29.72R
INTL FALLS     LGT RAIN  49  46  90 W16G25    29.66S
WASKISH        CLOUDY    54  43  66 W23G31    29.77S
BIG FORK       DRIZZLE   48  45  87 W9G18     29.74F
LONGVILLE      MOSUNNY   55  39  54 W22       29.82
GRAND RAPIDS   LGT RAIN  51  43  74 NW22G32   29.78F
CRANE LAKE     RAIN      46  46 100 W7        29.64S
ORR            CLOUDY    46  43  87 W18G26    29.65S
COOK           CLOUDY    46  45  93 W17G25    29.68S
WALKER         FAIR      53  38  56 W23G33    29.84S
$$
MNZ012-019>021-037-261800-
   Northeast Minnesota

CITY           SKY/WX    TMP DP  RH WIND       PRES   REMARKS
DULUTH         LGT RAIN  50  46  86 W22G32    29.71S
ELY            CLOUDY    46  46 100 W22G30    29.61S FOG
HIBBING        LGT RAIN  47  44  90 W18G25    29.72S
EVELETH        PTSUNNY   47  44  88 W18G29    29.71S
DULUTH HARBOR  CLOUDY    55  46  71 W23G33    29.73S
TWO HARBORS    DRIZZLE   52  46  82 W10G22    29.66S
SILVER BAY     DRIZZLE   50  46  87 W9G21     29.62R
GRAND MARAIS     N/A     55  52  89 W9G18     29.53R
G MARAIS ARPRT RAIN      48  45  87 W9G17     29.53S
$$
MNZ029>031-032-039>041-046>048-054>057-064-261800-
   West Central Minnesota

CITY           SKY/WX    TMP DP  RH WIND       PRES   REMARKS
FERGUS FALLS   SUNNY     59  39  47 NW23G32   30.00S
MORRIS         SUNNY     63  36  36 W29G38    30.00F
ALEXANDRIA     SUNNY     59  38  45 NW23G38   29.98F
ELBOW LAKE     FAIR      58  37  45 NW20G29   30.00F
GLENWOOD       SUNNY     57  37  47 W26G35    29.98F
BENSON         SUNNY     63  30  29 N23G35    30.01F
MADISON          N/A     66  36  32 NW22G31   30.05F
WILLMAR        FAIR      63  36  36 NW28G38   30.01F
$$
MNZ033>034-036-042>043-049>051-058-059-261800-
   Central Minnesota

CITY           SKY/WX    TMP DP  RH WIND       PRES   REMARKS
ST CLOUD       MOSUNNY   59  39  47 W28G35    29.92F
SAUK CENTRE    FAIR      57  39  50 W24G31    29.96S
PAYNESVILLE    SUNNY     59  35  40 W24G35    29.98S
AITKIN         PTSUNNY   59  36  41 W15G24    29.82S
PINE RIVER     MOSUNNY   55  39  54 W14G26    29.89S
BRAINERD       PTSUNNY   55  39  54 W14G28    29.87F
STAPLES        MOSUNNY   57  36  44 NW22G36   29.90F
LONG PRAIRIE   PTSUNNY   57  39  51 W18G28    29.95S
LITTLE FALLS   MOSUNNY   55  36  47 W18G35    29.91F
LITCHFIELD     SUNNY     61  39  44 W20G31    29.97F
BUFFALO        MOSUNNY   59  38  44 W24G35    29.95F
MAPLE LAKE     MOSUNNY   61  42  51 NW21G29   29.95S
HUTCHINSON     SUNNY     62  37  40 W22G35    29.98F
$$
MNZ037-044-045-052-053-261800-
   East Central Minnesota

CITY           SKY/WX    TMP DP  RH WIND       PRES   REMARKS
PRINCETON      PTSUNNY   61  41  48 W17G32    29.90F
MORA           MOSUNNY   55  37  50 NW21G30   29.87S
CAMBRIDGE      PTSUNNY   61  43  51 W18G30    29.87F
MOOSE LAKE     PTSUNNY   54  41  62 W10G23    29.78S
HINCKLEY       CLOUDY    55  41  58 W14G25    29.83F
CLOQUET        CLOUDY    54  41  62 W26G35    29.74F
MCGREGOR       CLOUDY    54  41  62 W16G30    29.81S
$$
MNZ071>073-080-081-089-090-097-098-261800-
   Southwest Minnesota

CITY           SKY/WX    TMP DP  RH WIND       PRES   REMARKS
MONTEVIDEO     SUNNY     64  36  34 N22G32    30.05F
GRANITE FALLS  SUNNY     65  35  32 NW23G33   30.06S
CANBY          SUNNY     63  34  33 W18G31    30.08F
MARSHALL       SUNNY     63  34  33 NW22G38   30.06F
REDWOOD FALLS  SUNNY     64  31  28 NW31G43   30.02F
OLIVIA         SUNNY     63  34  34 W22G35    30.00F
PIPESTONE      SUNNY     63  28  27 NW18G30   30.11F
WINDOM         SUNNY     63  30  29 W25G36    30.07F
WORTHINGTON    SUNNY     62  37  39 W24G30    30.11F
JACKSON        SUNNY     63  28  27 NW20G31   30.09F
TRACY          SUNNY     64  34  32 NW23G32   30.08F
$$
MNZ065>067-074>077-082>085-091>093-261800-
   South Central Minnesota

CITY           SKY/WX    TMP DP  RH WIND       PRES   REMARKS
MANKATO        SUNNY     62  33  33 W24G37    29.99F
NEW ULM        SUNNY     63  34  34 NW26G35   30.01F
ST JAMES       SUNNY     64  34  32 W28G37    30.05F
FAIRMONT       SUNNY     63  34  33 W23G35    30.06F
GLENCOE        SUNNY     63  40  42 W24G36    29.96F
FARIBAULT      SUNNY     64  37  36 W24G31    29.97F
OWATONNA       SUNNY     63  32  31 W29G38    29.98F
WASECA         SUNNY     63  34  34 W29G37    30.01F
ALBERT LEA     SUNNY     63  34  34 NW14G23   30.01F
$$
MNZ078>079-086>088-094>096-261800-
   Southeast Minnesota

CITY           SKY/WX    TMP DP  RH WIND       PRES   REMARKS
ROCHESTER      SUNNY     63  35  35 W20G37    29.96F
RED WING       MOSUNNY   63  36  36 NW24G33   29.90F
STANTON        SUNNY     63  37  38 W22G33    29.93F
DODGE CENTER   SUNNY     61  36  39 W22G30    29.97F
WINONA         SUNNY     63  36  36 NW15G26   29.92F
AUSTIN         SUNNY     61  34  36 W26G33    30.00F
PRESTON        SUNNY     60  33  36 W29G37    29.98F
$$
ABBREVIATIONS USED IN REMARKS
   TC - TEMPERATURES IN CELSIUS
  WCI - WIND CHILL INDEX
   HX - HEAT INDEX
  VSB - VISIBILITY
$$



USA.gov is the U.S. government's official web portal to all federal, state and local government web resources and services.